NKS2505 KMSY-KFLL

Flight info

Callsign NKS2505
Flight time 1h 23m
Altitude 37000
Route BLVNS Y290 DOWRY TEEKY4
Aircraft A320/M-SDE3FGHIRWY/LB1

Departure

Time 2026-05-03 21:10
Airport Louis Armstrong New Orleans International Airport (KMSY)

Arrival

Time 2026-05-03 22:33
Airport Fort Lauderdale Hollywood International Airport (KFLL)
Time Latitude Longitude Altitude Speed Heading
2026-05-03 20:40 29.98842 -90.25837 19 ft 0 kts 251°
2026-05-03 21:00 29.98842 -90.25835 17 ft 2 kts 251°
2026-05-03 21:00 29.98852 -90.25803 17 ft 1 kts 251°
2026-05-03 21:00 29.98853 -90.25799 17 ft 0 kts 251°
2026-05-03 21:03 29.98852 -90.25800 17 ft 0 kts 251°
2026-05-03 21:03 29.98851 -90.25804 17 ft 1 kts 251°
2026-05-03 21:03 29.98846 -90.25811 17 ft 1 kts 218°
2026-05-03 21:04 29.98835 -90.25805 23 ft 3 kts 148°
2026-05-03 21:04 29.98836 -90.25768 13 ft 7 kts 69°
2026-05-03 21:04 29.98877 -90.25715 17 ft 10 kts 30°
2026-05-03 21:04 29.98949 -90.25719 18 ft 11 kts 303°
2026-05-03 21:05 29.98974 -90.25826 17 ft 17 kts 285°
2026-05-03 21:05 29.99012 -90.25976 14 ft 22 kts 284°
2026-05-03 21:05 29.99047 -90.26159 15 ft 24 kts 287°
2026-05-03 21:05 29.99101 -90.26353 12 ft 24 kts 286°
2026-05-03 21:06 29.99149 -90.26554 13 ft 27 kts 283°
2026-05-03 21:06 29.99193 -90.26757 12 ft 20 kts 287°
2026-05-03 21:06 29.99237 -90.26920 16 ft 23 kts 285°
2026-05-03 21:06 29.99282 -90.27113 12 ft 27 kts 285°
2026-05-03 21:07 29.99336 -90.27338 9 ft 30 kts 285°
2026-05-03 21:07 29.99389 -90.27557 6 ft 21 kts 285°
2026-05-03 21:07 29.99429 -90.27724 7 ft 22 kts 285°
2026-05-03 21:07 29.99471 -90.27902 7 ft 24 kts 285°
2026-05-03 21:08 29.99514 -90.28083 10 ft 23 kts 285°
2026-05-03 21:08 29.99585 -90.28186 11 ft 14 kts 356°
2026-05-03 21:08 29.99654 -90.28153 10 ft 7 kts 62°
2026-05-03 21:08 29.99648 -90.28100 9 ft 8 kts 106°
2026-05-03 21:09 29.99603 -90.27912 8 ft 56 kts 105°
2026-05-03 21:09 29.99437 -90.27233 11 ft 116 kts 105°
2026-05-03 21:09 29.99176 -90.26150 11 ft 162 kts 105°
2026-05-03 21:09 29.98859 -90.24814 389 ft 172 kts 104°
2026-05-03 21:10 29.98535 -90.23498 1057 ft 170 kts 108°
2026-05-03 21:10 29.97932 -90.22331 1653 ft 173 kts 129°
2026-05-03 21:10 29.97089 -90.21210 1899 ft 195 kts 130°
2026-05-03 21:10 29.96172 -90.19956 2163 ft 215 kts 129°
2026-05-03 21:11 29.95177 -90.18561 2424 ft 236 kts 127°
2026-05-03 21:11 29.94102 -90.17023 2798 ft 258 kts 128°
2026-05-03 21:11 29.92957 -90.15389 3536 ft 265 kts 128°
2026-05-03 21:11 29.91785 -90.13728 4372 ft 269 kts 127°
2026-05-03 21:12 29.90596 -90.12050 5246 ft 272 kts 127°
2026-05-03 21:12 29.89389 -90.10354 6062 ft 276 kts 128°
2026-05-03 21:12 29.88164 -90.08636 6848 ft 280 kts 128°
2026-05-03 21:12 29.86917 -90.06888 7572 ft 285 kts 128°
2026-05-03 21:13 29.85649 -90.05107 8297 ft 290 kts 128°
2026-05-03 21:13 29.84353 -90.03293 9031 ft 296 kts 128°
2026-05-03 21:13 29.83030 -90.01445 9739 ft 302 kts 128°
2026-05-03 21:13 29.81674 -89.99551 10238 ft 316 kts 129°
2026-05-03 21:14 29.80226 -89.97524 10400 ft 339 kts 129°
2026-05-03 21:14 29.78701 -89.95391 10802 ft 350 kts 129°
2026-05-03 21:14 29.77161 -89.93241 11390 ft 355 kts 129°
2026-05-03 21:14 29.75581 -89.91031 11988 ft 360 kts 130°
2026-05-03 21:15 29.73985 -89.88793 12593 ft 364 kts 130°
2026-05-03 21:15 29.72370 -89.86533 13198 ft 368 kts 130°
2026-05-03 21:15 29.70731 -89.84249 13784 ft 372 kts 130°
2026-05-03 21:15 29.69075 -89.81942 14344 ft 376 kts 131°
2026-05-03 21:16 29.67402 -89.79611 14877 ft 379 kts 131°
2026-05-03 21:16 29.65715 -89.77264 15416 ft 382 kts 131°
2026-05-03 21:16 29.64013 -89.74895 15959 ft 385 kts 131°
2026-05-03 21:16 29.62302 -89.72512 16487 ft 388 kts 131°
2026-05-03 21:17 29.60573 -89.70110 17030 ft 391 kts 131°
2026-05-03 21:17 29.59421 -89.68513 17378 ft 393 kts 131°
2026-05-03 21:17 29.57075 -89.65258 18091 ft 397 kts 131°
2026-05-03 21:17 29.55307 -89.62801 18599 ft 401 kts 131°
2026-05-03 21:18 29.53522 -89.60320 18996 ft 405 kts 132°
2026-05-03 21:18 29.51713 -89.57803 19333 ft 412 kts 132°
2026-05-03 21:18 29.49875 -89.55254 19736 ft 417 kts 132°
2026-05-03 21:18 29.48010 -89.52674 20159 ft 422 kts 133°
2026-05-03 21:19 29.46125 -89.50075 20554 ft 426 kts 133°
2026-05-03 21:19 29.44217 -89.47445 20952 ft 431 kts 133°
2026-05-03 21:19 29.42294 -89.44787 21341 ft 435 kts 133°
2026-05-03 21:19 29.40351 -89.42099 21717 ft 439 kts 133°
2026-05-03 21:20 29.38392 -89.39389 22088 ft 444 kts 133°
2026-05-03 21:20 29.36414 -89.36653 22455 ft 448 kts 134°
2026-05-03 21:20 29.34416 -89.33894 22830 ft 452 kts 134°
2026-05-03 21:20 29.32397 -89.31112 23200 ft 456 kts 134°
2026-05-03 21:21 29.30360 -89.28309 23561 ft 460 kts 134°
2026-05-03 21:21 29.28303 -89.25479 23893 ft 464 kts 134°
2026-05-03 21:21 29.26231 -89.22631 24218 ft 467 kts 135°
2026-05-03 21:21 29.24149 -89.19770 24562 ft 468 kts 135°
2026-05-03 21:22 29.22061 -89.16900 24913 ft 470 kts 135°
2026-05-03 21:22 29.19961 -89.14017 25255 ft 472 kts 135°
2026-05-03 21:22 29.17852 -89.11123 25592 ft 475 kts 135°
2026-05-03 21:22 29.15733 -89.08216 25925 ft 477 kts 135°
2026-05-03 21:23 29.13598 -89.05297 26259 ft 479 kts 135°
2026-05-03 21:23 29.11452 -89.02368 26581 ft 482 kts 135°
2026-05-03 21:23 29.09322 -88.99464 26904 ft 484 kts 135°
2026-05-03 21:23 29.07154 -88.96501 27215 ft 487 kts 135°
2026-05-03 21:24 29.04980 -88.93530 27527 ft 489 kts 135°
2026-05-03 21:24 29.02793 -88.90544 27843 ft 491 kts 135°
2026-05-03 21:24 29.00594 -88.87546 28156 ft 494 kts 135°
2026-05-03 21:24 28.98381 -88.84533 28470 ft 496 kts 136°
2026-05-03 21:25 28.96164 -88.81515 28858 ft 497 kts 136°
2026-05-03 21:25 28.93940 -88.78487 29124 ft 499 kts 136°
2026-05-03 21:25 28.91702 -88.75445 29428 ft 501 kts 136°
2026-05-03 21:25 28.89452 -88.72392 29756 ft 504 kts 136°
2026-05-03 21:26 28.87194 -88.69328 30046 ft 506 kts 136°
2026-05-03 21:26 28.84928 -88.66252 30437 ft 505 kts 136°
2026-05-03 21:26 28.83402 -88.64178 30683 ft 505 kts 136°
2026-05-03 21:26 28.80413 -88.60129 31183 ft 504 kts 136°
2026-05-03 21:27 28.78158 -88.57079 31562 ft 503 kts 137°
2026-05-03 21:27 28.75906 -88.54035 31927 ft 502 kts 137°
2026-05-03 21:27 28.73655 -88.50997 32295 ft 502 kts 137°
2026-05-03 21:27 28.71406 -88.47959 32670 ft 501 kts 137°
2026-05-03 21:28 28.69888 -88.45910 32951 ft 500 kts 137°
2026-05-03 21:28 28.67653 -88.42894 33387 ft 498 kts 137°
2026-05-03 21:28 28.65419 -88.39882 33733 ft 497 kts 138°
2026-05-03 21:28 28.63191 -88.36881 34089 ft 497 kts 138°
2026-05-03 21:29 28.60960 -88.33877 34380 ft 497 kts 138°
2026-05-03 21:29 28.58726 -88.30875 34656 ft 497 kts 139°
2026-05-03 21:29 28.56522 -88.27919 34934 ft 497 kts 139°
2026-05-03 21:29 28.54288 -88.24921 35107 ft 497 kts 139°
2026-05-03 21:30 28.49815 -88.18915 35145 ft 497 kts 139°
2026-05-03 21:30 28.45339 -88.12924 35149 ft 497 kts 139°
2026-05-03 21:31 28.40873 -88.06933 35145 ft 498 kts 137°
2026-05-03 21:31 28.37296 -88.00065 35145 ft 516 kts 117°
2026-05-03 21:32 28.35014 -87.92282 35103 ft 520 kts 114°
2026-05-03 21:32 28.32753 -87.84406 35142 ft 521 kts 114°
2026-05-03 21:33 28.30511 -87.76643 35147 ft 521 kts 114°
2026-05-03 21:33 28.28244 -87.68835 35139 ft 521 kts 114°
2026-05-03 21:34 28.25966 -87.61029 35140 ft 521 kts 114°
2026-05-03 21:34 28.23692 -87.53232 35141 ft 521 kts 114°
2026-05-03 21:35 28.21417 -87.45440 35141 ft 521 kts 115°
2026-05-03 21:35 28.19131 -87.37657 35138 ft 521 kts 115°
2026-05-03 21:36 28.16843 -87.29870 35138 ft 521 kts 115°
2026-05-03 21:36 28.14556 -87.22078 35139 ft 521 kts 115°
2026-05-03 21:37 28.12269 -87.14289 35139 ft 521 kts 115°
2026-05-03 21:37 28.09969 -87.06508 35136 ft 521 kts 115°
2026-05-03 21:38 28.07659 -86.98734 35136 ft 521 kts 115°
2026-05-03 21:38 28.05346 -86.90957 35136 ft 520 kts 116°
2026-05-03 21:39 28.03041 -86.83205 35111 ft 519 kts 116°
2026-05-03 21:39 28.00723 -86.75459 35128 ft 520 kts 116°
2026-05-03 21:40 27.98446 -86.67680 35135 ft 521 kts 115°
2026-05-03 21:40 27.96215 -86.59882 35129 ft 521 kts 115°
2026-05-03 21:41 27.93987 -86.52085 35129 ft 520 kts 116°
2026-05-03 21:41 27.91729 -86.44320 35128 ft 520 kts 116°
2026-05-03 21:42 27.89453 -86.36570 35127 ft 519 kts 116°
2026-05-03 21:42 27.87186 -86.28814 35128 ft 519 kts 116°
2026-05-03 21:43 27.84917 -86.21063 35124 ft 520 kts 116°
2026-05-03 21:43 27.82647 -86.13315 35126 ft 519 kts 116°
2026-05-03 21:44 27.80372 -86.05571 35127 ft 519 kts 116°
2026-05-03 21:44 27.78081 -85.97841 35128 ft 519 kts 116°
2026-05-03 21:45 27.75797 -85.90109 35123 ft 519 kts 116°
2026-05-03 21:45 27.73511 -85.82374 35123 ft 519 kts 116°
2026-05-03 21:46 27.71218 -85.74645 35122 ft 519 kts 116°
2026-05-03 21:46 27.68918 -85.66919 35122 ft 519 kts 116°
2026-05-03 21:47 27.66613 -85.59201 35120 ft 519 kts 117°
2026-05-03 21:47 27.64299 -85.51480 35117 ft 519 kts 116°
2026-05-03 21:48 27.61988 -85.43764 35111 ft 519 kts 117°
2026-05-03 21:48 27.59671 -85.36042 35112 ft 521 kts 116°
2026-05-03 21:49 27.58058 -85.27981 35111 ft 530 kts 108°
2026-05-03 21:49 27.56650 -85.19827 35109 ft 530 kts 108°
2026-05-03 21:50 27.55234 -85.11675 35106 ft 530 kts 108°
2026-05-03 21:50 27.53810 -85.03513 35096 ft 531 kts 108°
2026-05-03 21:51 27.52370 -84.95351 35105 ft 531 kts 108°
2026-05-03 21:51 27.50927 -84.87184 35106 ft 532 kts 108°
2026-05-03 21:52 27.49479 -84.79016 35097 ft 531 kts 108°
2026-05-03 21:52 27.48026 -84.70856 35100 ft 532 kts 108°
2026-05-03 21:53 27.46576 -84.62691 35079 ft 531 kts 108°
2026-05-03 21:53 27.45122 -84.54535 35097 ft 531 kts 109°
2026-05-03 21:54 27.43650 -84.46391 35105 ft 531 kts 109°
2026-05-03 21:54 27.42287 -84.38219 35106 ft 536 kts 102°
2026-05-03 21:55 27.41982 -84.29785 35099 ft 540 kts 97°
2026-05-03 21:55 27.41765 -84.21343 35089 ft 540 kts 97°
2026-05-03 21:56 27.41526 -84.12901 35096 ft 540 kts 97°
2026-05-03 21:56 27.41279 -84.04457 35096 ft 540 kts 97°
2026-05-03 21:57 27.41026 -83.96011 35101 ft 540 kts 97°
2026-05-03 21:57 27.40775 -83.87571 35090 ft 539 kts 97°
2026-05-03 21:58 27.40525 -83.79136 35096 ft 539 kts 97°
2026-05-03 21:58 27.40266 -83.70706 35089 ft 539 kts 97°
2026-05-03 21:59 27.39997 -83.62279 35093 ft 539 kts 97°
2026-05-03 21:59 27.39728 -83.53859 35087 ft 539 kts 97°
2026-05-03 22:00 27.39455 -83.45439 35069 ft 538 kts 97°
2026-05-03 22:00 27.39168 -83.37018 35080 ft 539 kts 97°
2026-05-03 22:01 27.38886 -83.28593 35073 ft 539 kts 97°
2026-05-03 22:01 27.38618 -83.20166 35074 ft 539 kts 97°
2026-05-03 22:02 27.38378 -83.11734 35064 ft 539 kts 97°
2026-05-03 22:02 27.38145 -83.03300 35065 ft 539 kts 98°
2026-05-03 22:03 27.37669 -82.99173 35063 ft 525 kts 112°
2026-05-03 22:03 27.36463 -82.95380 35064 ft 508 kts 126°
2026-05-03 22:03 27.33367 -82.88248 35063 ft 507 kts 126°
2026-05-03 22:04 27.31801 -82.84688 34926 ft 508 kts 126°
2026-05-03 22:04 27.30220 -82.81111 34145 ft 514 kts 126°
2026-05-03 22:04 27.28644 -82.77528 33750 ft 505 kts 125°
2026-05-03 22:04 27.27128 -82.74046 33431 ft 490 kts 125°
2026-05-03 22:05 27.25646 -82.70640 32900 ft 480 kts 125°
2026-05-03 22:05 27.24189 -82.67313 32651 ft 472 kts 125°
2026-05-03 22:05 27.22723 -82.64009 32550 ft 473 kts 125°
2026-05-03 22:05 27.21248 -82.60703 32453 ft 473 kts 125°
2026-05-03 22:06 27.19779 -82.57408 32347 ft 472 kts 125°
2026-05-03 22:06 27.18314 -82.54110 32152 ft 471 kts 125°
2026-05-03 22:06 27.16861 -82.50829 31903 ft 468 kts 124°
2026-05-03 22:06 27.15420 -82.47566 31645 ft 465 kts 124°
2026-05-03 22:07 27.13985 -82.44323 31403 ft 462 kts 124°
2026-05-03 22:07 27.12537 -82.41070 31168 ft 473 kts 124°
2026-05-03 22:07 27.11034 -82.37719 30906 ft 488 kts 123°
2026-05-03 22:07 27.09503 -82.34297 30677 ft 492 kts 123°
2026-05-03 22:08 27.07978 -82.30862 30444 ft 491 kts 123°
2026-05-03 22:08 27.06465 -82.27442 30219 ft 489 kts 123°
2026-05-03 22:08 27.05467 -82.25189 30060 ft 487 kts 122°
2026-05-03 22:08 27.03965 -82.21795 29789 ft 484 kts 122°
2026-05-03 22:09 27.02469 -82.18422 29530 ft 482 kts 123°
2026-05-03 22:09 27.00975 -82.15065 29265 ft 480 kts 123°
2026-05-03 22:09 26.99478 -82.11723 28998 ft 478 kts 123°
2026-05-03 22:10 26.96384 -82.05180 28476 ft 468 kts 130°
2026-05-03 22:10 26.94444 -82.02304 28192 ft 458 kts 139°
2026-05-03 22:10 26.92268 -81.99715 27933 ft 456 kts 141°
2026-05-03 22:10 26.90083 -81.97146 27678 ft 455 kts 141°
2026-05-03 22:11 26.87909 -81.94579 27428 ft 453 kts 141°
2026-05-03 22:11 26.85748 -81.92020 27173 ft 452 kts 141°
2026-05-03 22:11 26.83594 -81.89466 26931 ft 450 kts 141°
2026-05-03 22:11 26.81446 -81.86926 26684 ft 448 kts 141°
2026-05-03 22:12 26.79303 -81.84401 26441 ft 446 kts 141°
2026-05-03 22:12 26.77166 -81.81890 26198 ft 445 kts 141°
2026-05-03 22:12 26.75030 -81.79390 25923 ft 443 kts 141°
2026-05-03 22:12 26.72900 -81.76910 25431 ft 441 kts 141°
2026-05-03 22:13 26.70780 -81.74446 24903 ft 438 kts 141°
2026-05-03 22:13 26.68672 -81.72000 24416 ft 436 kts 141°
2026-05-03 22:13 26.66568 -81.69559 23915 ft 435 kts 141°
2026-05-03 22:13 26.64472 -81.67129 23419 ft 432 kts 141°
2026-05-03 22:14 26.62474 -81.64638 22929 ft 433 kts 135°
2026-05-03 22:14 26.60665 -81.61975 22327 ft 425 kts 134°
2026-05-03 22:14 26.58912 -81.59350 21882 ft 421 kts 133°
2026-05-03 22:14 26.57171 -81.56736 21397 ft 419 kts 133°
2026-05-03 22:15 26.55437 -81.54136 20921 ft 416 kts 133°
2026-05-03 22:15 26.53707 -81.51550 20440 ft 414 kts 133°
2026-05-03 22:15 26.51983 -81.48986 19960 ft 412 kts 133°
2026-05-03 22:15 26.50260 -81.46436 19486 ft 411 kts 133°
2026-05-03 22:16 26.48553 -81.43907 19016 ft 405 kts 133°
2026-05-03 22:16 26.46867 -81.41412 18544 ft 401 kts 133°
2026-05-03 22:16 26.45192 -81.38939 17999 ft 398 kts 133°
2026-05-03 22:16 26.43560 -81.36526 17555 ft 393 kts 133°
2026-05-03 22:17 26.41914 -81.34098 17116 ft 391 kts 133°
2026-05-03 22:17 26.40263 -81.31699 16667 ft 388 kts 134°
2026-05-03 22:17 26.38575 -81.29374 16227 ft 384 kts 135°
2026-05-03 22:17 26.36864 -81.27100 15780 ft 381 kts 136°
2026-05-03 22:18 26.35154 -81.24862 15342 ft 378 kts 136°
2026-05-03 22:18 26.33453 -81.22641 14909 ft 375 kts 135°
2026-05-03 22:18 26.31768 -81.20427 14470 ft 373 kts 135°
2026-05-03 22:18 26.30104 -81.18220 14037 ft 371 kts 135°
2026-05-03 22:19 26.28455 -81.16021 13580 ft 368 kts 134°
2026-05-03 22:19 26.26837 -81.13868 13383 ft 354 kts 134°
2026-05-03 22:19 26.25289 -81.11814 13238 ft 339 kts 135°
2026-05-03 22:19 26.23786 -81.09832 12751 ft 331 kts 135°
2026-05-03 22:20 26.22304 -81.07885 12161 ft 328 kts 135°
2026-05-03 22:20 26.20838 -81.05963 11638 ft 323 kts 135°
2026-05-03 22:20 26.19389 -81.04068 11240 ft 322 kts 135°
2026-05-03 22:20 26.17942 -81.02172 10891 ft 320 kts 134°
2026-05-03 22:21 26.16521 -81.00304 10499 ft 314 kts 134°
2026-05-03 22:21 26.15258 -80.98323 10138 ft 315 kts 121°
2026-05-03 22:21 26.14427 -80.96060 9732 ft 316 kts 107°
2026-05-03 22:21 26.13999 -80.93654 9338 ft 318 kts 102°
2026-05-03 22:22 26.13609 -80.91248 8937 ft 312 kts 102°
2026-05-03 22:22 26.13218 -80.88880 8559 ft 309 kts 102°
2026-05-03 22:22 26.12827 -80.86541 8184 ft 306 kts 102°
2026-05-03 22:22 26.12438 -80.84218 7810 ft 304 kts 102°
2026-05-03 22:23 26.12056 -80.81926 7441 ft 301 kts 102°
2026-05-03 22:23 26.11679 -80.79649 7074 ft 299 kts 102°
2026-05-03 22:23 26.11302 -80.77387 6862 ft 294 kts 102°
2026-05-03 22:23 26.10934 -80.75186 6737 ft 285 kts 102°
2026-05-03 22:24 26.10576 -80.73049 6606 ft 277 kts 102°
2026-05-03 22:24 26.10224 -80.70967 6459 ft 271 kts 103°
2026-05-03 22:24 26.09878 -80.68918 6302 ft 267 kts 103°
2026-05-03 22:24 26.09538 -80.66912 6166 ft 260 kts 102°
2026-05-03 22:25 26.09206 -80.64952 6024 ft 255 kts 102°
2026-05-03 22:25 26.08884 -80.63047 5882 ft 247 kts 102°
2026-05-03 22:25 26.08568 -80.61175 5764 ft 245 kts 102°
2026-05-03 22:25 26.08253 -80.59314 5631 ft 244 kts 102°
2026-05-03 22:26 26.07939 -80.57459 5512 ft 244 kts 102°
2026-05-03 22:26 26.07625 -80.55608 5377 ft 243 kts 102°
2026-05-03 22:26 26.07312 -80.53765 5252 ft 242 kts 102°
2026-05-03 22:26 26.06959 -80.51928 5160 ft 243 kts 103°
2026-05-03 22:27 26.06751 -80.50058 5046 ft 245 kts 94°
2026-05-03 22:27 26.06724 -80.48174 5016 ft 241 kts 91°
2026-05-03 22:27 26.06729 -80.46373 5037 ft 224 kts 91°
2026-05-03 22:27 26.06725 -80.44680 4905 ft 218 kts 93°
2026-05-03 22:28 26.06718 -80.42994 4642 ft 217 kts 91°
2026-05-03 22:28 26.06711 -80.41312 4359 ft 217 kts 90°
2026-05-03 22:28 26.06705 -80.39650 4070 ft 212 kts 90°
2026-05-03 22:28 26.06698 -80.38029 3800 ft 207 kts 91°
2026-05-03 22:29 26.06691 -80.36427 3534 ft 206 kts 91°
2026-05-03 22:29 26.06684 -80.34855 3280 ft 201 kts 90°
2026-05-03 22:29 26.06678 -80.33316 3019 ft 198 kts 90°
2026-05-03 22:29 26.06669 -80.31784 2763 ft 198 kts 90°
2026-05-03 22:30 26.06664 -80.30255 2490 ft 198 kts 90°
2026-05-03 22:30 26.06656 -80.28739 2253 ft 193 kts 90°
2026-05-03 22:30 26.06649 -80.27263 1997 ft 186 kts 89°
2026-05-03 22:30 26.06641 -80.25889 1751 ft 169 kts 88°
2026-05-03 22:31 26.06635 -80.24624 1545 ft 160 kts 88°
2026-05-03 22:31 26.06629 -80.23409 1343 ft 155 kts 88°
2026-05-03 22:31 26.06623 -80.22239 1151 ft 149 kts 86°
2026-05-03 22:31 26.06617 -80.21097 949 ft 147 kts 87°
2026-05-03 22:32 26.06611 -80.19965 773 ft 145 kts 85°
2026-05-03 22:32 26.06605 -80.18843 588 ft 146 kts 87°
2026-05-03 22:32 26.06599 -80.17718 397 ft 145 kts 87°
2026-05-03 22:32 26.06593 -80.16591 218 ft 146 kts 88°
2026-05-03 22:33 26.06587 -80.15464 51 ft 143 kts 88°
2026-05-03 22:33 26.06581 -80.14414 47 ft 106 kts 90°
2026-05-03 22:33 26.06584 -80.13871 73 ft 29 kts 79°
2026-05-03 22:33 26.06674 -80.13727 69 ft 12 kts 37°
2026-05-03 22:34 26.06687 -80.13722 68 ft 2 kts 18°
2026-05-03 22:34 26.06729 -80.13721 67 ft 8 kts 330°
2026-05-03 22:34 26.06741 -80.13741 66 ft 2 kts 291°
2026-05-03 22:34 26.06745 -80.13763 73 ft 4 kts 276°
2026-05-03 22:35 26.06745 -80.13801 70 ft 6 kts 269°
2026-05-03 22:35 26.06744 -80.13854 69 ft 8 kts 268°
2026-05-03 22:35 26.06743 -80.13875 67 ft 0 kts 269°
2026-05-03 22:35 26.06743 -80.13876 67 ft 1 kts 269°
2026-05-03 22:36 26.06743 -80.13902 67 ft 5 kts 269°
2026-05-03 22:36 26.06742 -80.13938 75 ft 0 kts 269°
2026-05-03 22:36 26.06742 -80.13941 75 ft 1 kts 269°
2026-05-03 22:36 26.06742 -80.13962 75 ft 5 kts 266°
2026-05-03 22:37 26.06729 -80.14016 74 ft 10 kts 248°
2026-05-03 22:37 26.06695 -80.14100 64 ft 16 kts 246°
2026-05-03 22:37 26.06679 -80.14271 49 ft 21 kts 270°
2026-05-03 22:37 26.06676 -80.14392 48 ft 16 kts 269°
2026-05-03 22:38 26.06676 -80.14541 42 ft 21 kts 270°
2026-05-03 22:38 26.06677 -80.14724 28 ft 23 kts 271°
2026-05-03 22:38 26.06689 -80.14881 20 ft 18 kts 288°
2026-05-03 22:38 26.06762 -80.14893 15 ft 10 kts 62°
2026-05-03 22:39 26.06766 -80.14798 15 ft 15 kts 90°
2026-05-03 22:39 26.06765 -80.14671 15 ft 17 kts 91°
2026-05-03 22:39 26.06768 -80.14534 15 ft 17 kts 84°
2026-05-03 22:39 26.06773 -80.14429 15 ft 12 kts 82°
2026-05-03 22:40 26.06830 -80.14383 16 ft 10 kts 356°
2026-05-03 22:40 26.06880 -80.14384 16 ft 3 kts
2026-05-03 22:40 26.06883 -80.14384 16 ft 0 kts